Regional Weather Roundup
Issued by NWS

Home | Current Version | Previous Version | Text Only | Print | Product List | Glossary Off
Versions: 1 2 3 4 5 6 7 8 9 10 11 12 13 14 15 16 17 18 19 20 21 22 23 24 25 26 27 28 29 30 31 32 33 34 35 36 37 38 39 40 41 42 43 44 45 46 47 48 49 50

000
ASUS43 KIND 180109
RWRIN

WEATHER ROUNDUP FOR INDIANA
NATIONAL WEATHER SERVICE INDIANAPOLIS IN
800 PM EST SUN DEC 17 2017

NOTE: "FAIR" INDICATES FEW OR NO CLOUDS BELOW 12,000 FEET WITH NO
SIGNIFICANT WEATHER AND/OR OBSTRUCTIONS TO VISIBILITY.

* - STATION DOES NOT REPORT WEATHER SUCH AS PRECIPITATION OR FOG.

+ - STATION NOT QUALITY CONTROLLED BY THE NATIONAL WEATHER SERVICE.
    USE DATA WITH CAUTION...ESPECIALLY DEWPOINT AND RELATIVE
    HUMIDITY OBSERVATIONS.

INZ001>003-010>013-019-020-180200-
NORTHWEST INDIANA

CITY           SKY/WX    TMP DP  RH WIND       PRES   REMARKS
GARY /AIRPORT/ CLOUDY    45  36  70 VRB5      30.02R
KNOX *+        CLOUDY    39  36  87 S6        30.02S WCI  35
LA PORTE +     CLOUDY    38  34  84 S6        30.02R WCI  34
MICHIGAN CITY+ CLOUDY    41  34  75 S7        30.02R
MONTICELLO +   CLOUDY    42  36  80 S7        30.05R
RENSSELAER +   CLOUDY    41  32  70 S9        30.04R
VALPARAISO     CLOUDY    41  36  82 S5        30.02R

$$

LMZ046-743>745-180200-
SOUTHERN LAKE MICHIGAN

STATION/POSITION TIME  TEMP    WIND        PRES    WAVE
                       AIR SEA DIR/SP/G            HT
                 (UTC) (F)     (DEG/KT/KT) (MB)    (FT)
BURNS HARBOR     0040   43     190/ 11/ 14 1016.6R
MICHIGAN CITY    0040   42     170/ 14/ 16   N/A

$$

INZ004-005-014>016-021>024-180200-
NORTH CENTRAL INDIANA

CITY           SKY/WX    TMP DP  RH WIND       PRES   REMARKS
GOSHEN         CLOUDY    39  34  82 S12       30.02S WCI  32
LOGANSPORT +   CLOUDY    37  36  93 S7        30.06S WCI  32
PERU/GRISSOM   CLOUDY    40  40 100 S8        30.05R WCI  34
ROCHESTER +    CLOUDY    43  37  81 S8        30.05R
SOUTH BEND     CLOUDY    37  34  89 S9        30.02S WCI  30
WARSAW +       CLOUDY    39  36  87 S6        30.04S WCI  35

$$

INZ006>009-017-018-025>027-180200-
NORTHEAST INDIANA

CITY           SKY/WX    TMP DP  RH WIND       PRES   REMARKS
AUBURN +       CLOUDY    36  32  87 CALM      30.05S
FORT WAYNE     CLOUDY    39  36  89 S10       30.05S WCI  32
HUNTINGTON +   CLOUDY    38  37  94 S7        30.05S WCI  33
KENDALLVILLE + CLOUDY    36  34  91 SW5       30.04R WCI  32

$$

INZ028-029-035-036-043>045-051>053-180200-
WEST CENTRAL INDIANA

CITY           SKY/WX    TMP DP  RH WIND       PRES   REMARKS
CRAWFORDSVL +  MOCLDY    36  36 100 S7        30.08R WCI  30
GREENCASTLE +  PTCLDY    39  36  87 SW3       30.09R
LAFAYETTE      CLOUDY    41  38  89 S6        30.06R
TERRE HAUTE    CLOUDY    44  38  79 S9        30.10R

$$

INZ030>032-037>040-046>048-054>057-064-065-180200-
CENTRAL INDIANA

CITY           SKY/WX    TMP DP  RH WIND       PRES   REMARKS
COLUMBUS       CLOUDY    41  32  70 S7        30.12R
FRANKFORT +    CLOUDY    42  39  89 S3        30.08R
GREENWOOD *+   CLOUDY    44  38  77 S6        30.09R
INDIANAPOLIS   CLOUDY    38  35  89 S7        30.08R WCI  33
-EAGLE CREEK   CLOUDY    41  35  79 S3        30.07R
KOKOMO +       CLOUDY    39  37  92 S7        30.07R WCI  34
MARION +       CLOUDY    37  36  93 S7        30.08R WCI  32
MT COMFORT *+  CLOUDY    37  37 100 S5        30.08S WCI  34
SHELBYVILLE    CLOUDY    42  33  70 S8        30.09R
ZIONSVILLE +   CLOUDY    38  37  95 S5        30.08R WCI  34

$$

INZ033-034-041-042-049-050-058-059-180200-
EAST CENTRAL INDIANA

CITY           SKY/WX    TMP DP  RH WIND       PRES   REMARKS
MUNCIE         CLOUDY    41  35  79 SW3       30.08R

$$

INZ060-061-067>069-081>083-085>088-180200-
SOUTHWEST INDIANA

CITY           SKY/WX    TMP DP  RH WIND       PRES   REMARKS
EVANSVILLE     CLOUDY    43  42  97 S5        30.14R
HUNTINGBURG +  CLOUDY    42  39  89 S6        30.14R
WASHINGTON +   CLOUDY    42  36  78 S7        30.12R

$$

INZ062-063-066-070>080-084-089>092-180200-
SOUTH CENTRAL AND SOUTHEAST INDIANA

CITY           SKY/WX    TMP DP  RH WIND       PRES   REMARKS
BEDFORD +      CLOUDY    43  34  70 S5        30.10
BLOOMINGTON    CLOUDY    44  35  70 SW10      30.09R
MADISON *+     CLOUDY    43  34  70 S6        30.13R
NORTH VERNON + CLOUDY    41  32  70 S5        30.11R
SEYMOUR +      CLOUDY    43  34  70 SW3       30.12R

$$





USA.gov is the U.S. government's official web portal to all federal, state and local government web resources and services.